Date String (YYYY-MM-DD hh:mm:ss) UTC,Instrument flags,Ambient pressure (hPa),Sample flow (lpm),Bypass flow (lpm),Sample temperature (°C),Ambient temperature (°C),ASC tube jacket temperature (°C),LED temperature (°C),Box temperature (°C),Sample RH (%),Span deviation,Mass concentration (μg/m³),Mass concentration (μg/m³),Mass concentration (μg/m³)
DateTimeUTC,F1_M11,P_M11,Q1_M11,Q2_M11,T1_M11,T2_M11,T3_M11,T4_M11,T5_M11,U1_M11,ZSPAN_M11,X0_M11,X2_M11,X1_M11
2023-01-10 05:00:00,,0820.3,4.99,0.00,22.9,21.5,00.0,31.9,24.7,12.1,0000.0,0002.80,0001.63,0001.34
2023-01-10 05:01:00,,0820.2,5.00,0.00,22.9,21.4,00.0,31.9,24.7,12.4,0000.0,0002.76,0001.63,0001.35
2023-01-10 05:02:00,,0820.3,4.99,0.00,22.9,21.5,00.0,31.9,24.7,12.4,0000.0,0002.77,0001.63,0001.35
2023-01-10 05:03:00,,0820.2,4.99,0.00,22.9,21.5,00.0,31.9,24.7,12.6,0000.0,0002.83,0001.64,0001.35
2023-01-10 05:04:00,,0820.2,4.99,0.00,22.9,21.5,00.0,31.8,24.7,12.7,0000.0,0002.71,0001.63,0001.35
2023-01-10 05:05:00,,0820.2,4.99,0.00,22.9,21.6,00.0,31.8,24.8,12.7,0000.0,0002.66,0001.62,0001.36
2023-01-10 05:06:00,,0820.1,5.00,0.00,23.0,21.6,00.0,31.8,24.8,12.6,0000.0,0002.77,0001.66,0001.37
2023-01-10 05:07:00,,0820.0,5.00,0.00,23.0,21.6,00.0,31.8,24.8,12.4,0000.0,0002.88,0001.67,0001.36
2023-01-10 05:08:00,,0820.0,4.99,0.00,23.0,21.6,00.0,31.8,24.8,12.1,0000.0,0002.97,0001.70,0001.36
2023-01-10 05:09:00,,0820.0,5.00,0.00,23.0,21.6,00.0,31.8,24.8,12.2,0000.0,0003.04,0001.70,0001.35
2023-01-10 05:10:00,,0819.9,4.99,0.00,23.0,21.7,00.0,31.8,24.8,12.1,0000.0,0003.06,0001.74,0001.35
2023-01-10 05:11:00,,0819.9,4.99,0.00,23.0,21.7,00.0,31.8,24.8,12.1,0000.0,0003.28,0001.74,0001.34
2023-01-10 05:12:00,,0820.0,4.99,0.00,23.0,21.7,00.0,31.8,24.8,12.4,0000.0,0003.28,0001.74,0001.35
2023-01-10 05:13:00,,0820.0,4.98,0.00,23.0,21.7,00.0,31.8,24.8,12.6,0000.0,0003.40,0001.81,0001.40
2023-01-10 05:14:00,,0819.9,5.00,0.00,23.0,21.7,00.0,31.8,24.8,12.6,0000.0,0003.41,0001.84,0001.45
2023-01-10 05:15:00,,0820.0,5.00,0.00,23.0,21.7,00.0,31.8,24.9,12.3,0000.0,0003.50,0001.87,0001.47
2023-01-10 05:16:00,,0819.9,4.99,0.00,23.0,21.7,00.0,31.8,24.8,12.3,0000.0,0003.56,0001.90,0001.47
2023-01-10 05:17:00,,0819.9,5.00,0.00,23.0,21.7,00.0,31.8,24.8,12.3,0000.0,0003.59,0001.92,0001.46
2023-01-10 05:18:00,,0820.0,5.00,0.00,23.0,21.7,00.0,31.8,24.8,12.4,0000.0,0003.72,0001.98,0001.49
2023-01-10 05:19:00,,0820.0,5.00,0.00,23.0,21.7,00.0,31.8,24.8,12.6,0000.0,0003.72,0002.01,0001.53
2023-01-10 05:20:00,,0820.0,5.01,0.00,23.0,21.6,00.0,31.8,24.7,12.7,0000.0,0003.67,0002.05,0001.56
2023-01-10 05:21:00,,0820.0,4.99,0.00,23.0,21.6,00.0,31.8,24.7,12.7,0000.0,0003.62,0002.05,0001.58
2023-01-10 05:22:00,,0820.0,5.00,0.00,23.0,21.6,00.0,31.8,24.6,12.6,0000.0,0003.25,0002.04,0001.60
2023-01-10 05:23:00,,0820.0,5.00,0.00,23.0,21.5,00.0,31.8,24.6,12.6,0000.0,0003.25,0002.06,0001.60
2023-01-10 05:24:00,,0820.0,4.99,0.00,22.9,21.5,00.0,31.8,24.6,12.5,0000.0,0003.15,0002.01,0001.57
2023-01-10 05:25:00,,0820.0,5.00,0.00,22.9,21.5,00.0,31.8,24.6,12.4,0000.0,0003.05,0001.98,0001.53
2023-01-10 05:26:00,,0820.0,5.00,0.00,22.9,21.5,00.0,31.8,24.6,12.5,0000.0,0002.89,0001.92,0001.50
2023-01-10 05:27:00,,0820.0,5.00,0.00,22.9,21.5,00.0,31.8,24.6,12.6,0000.0,0003.11,0001.94,0001.51
2023-01-10 05:28:00,,0820.0,5.00,0.00,22.9,21.4,00.0,31.8,24.5,12.5,0000.0,0003.37,0001.96,0001.52
2023-01-10 05:29:00,,0820.0,5.00,0.00,22.9,21.4,00.0,31.8,24.5,12.5,0000.0,0003.19,0001.87,0001.49
2023-01-10 05:30:00,,0819.9,5.00,0.00,22.9,21.4,00.0,31.8,24.5,12.5,0000.0,0003.21,0001.89,0001.47
2023-01-10 05:31:00,,0820.0,5.00,0.00,22.8,21.4,00.0,31.8,24.5,12.5,0000.0,0003.19,0001.86,0001.45
2023-01-10 05:32:00,,0819.9,4.99,0.00,22.8,21.3,00.0,31.8,24.4,12.6,0000.0,0003.19,0001.84,0001.44
2023-01-10 05:33:00,,0820.0,5.00,0.00,22.8,21.3,00.0,31.8,24.4,12.6,0000.0,0003.30,0001.84,0001.42
2023-01-10 05:34:00,,0820.0,5.01,0.00,22.8,21.3,00.0,31.7,24.4,12.4,0000.0,0003.46,0001.80,0001.39
2023-01-10 05:35:00,,0820.1,4.99,0.00,22.8,21.3,00.0,31.7,24.5,12.7,0000.0,0003.45,0001.78,0001.37
2023-01-10 05:36:00,,0820.2,5.00,0.00,22.8,21.3,00.0,31.7,24.6,12.9,0000.0,0003.48,0001.76,0001.38
2023-01-10 05:37:00,,0820.1,5.01,0.00,22.8,21.3,00.0,31.7,24.5,12.9,0000.0,0003.54,0001.81,0001.41
2023-01-10 05:38:00,,0820.0,5.01,0.00,22.8,21.3,00.0,31.7,24.5,12.8,0000.0,0003.35,0001.79,0001.41
2023-01-10 05:39:00,,0819.9,5.00,0.00,22.8,21.3,00.0,31.7,24.4,12.8,0000.0,0003.01,0001.74,0001.41
2023-01-10 05:40:00,,0819.9,4.98,0.00,22.7,21.3,00.0,31.7,24.4,12.7,0000.0,0002.99,0001.77,0001.40
2023-01-10 05:41:00,,0820.0,5.00,0.00,22.7,21.3,00.0,31.7,24.3,12.7,0000.0,0003.22,0001.80,0001.39
2023-01-10 05:42:00,,0819.9,5.00,0.00,22.7,21.3,00.0,31.7,24.3,12.7,0000.0,0003.70,0001.79,0001.37
2023-01-10 05:43:00,,0820.0,5.01,0.00,22.7,21.3,00.0,31.7,24.3,12.5,0000.0,0004.13,0001.78,0001.37
2023-01-10 05:44:00,,0820.0,5.01,0.00,22.7,21.3,00.0,31.6,24.4,12.3,0000.0,0004.06,0001.78,0001.37
2023-01-10 05:45:00,,0820.0,4.98,0.00,22.7,21.3,00.0,31.6,24.5,12.4,0000.0,0003.94,0001.79,0001.37
2023-01-10 05:46:00,,0820.0,4.99,0.00,22.7,21.3,00.0,31.6,24.5,12.5,0000.0,0005.10,0001.80,0001.37
2023-01-10 05:47:00,,0819.9,4.99,0.00,22.7,21.3,00.0,31.6,24.6,12.7,0000.0,0004.97,0001.75,0001.34
2023-01-10 05:48:00,,0820.0,5.00,0.00,22.7,21.1,00.0,31.7,24.5,12.8,0000.0,0005.05,0001.71,0001.32
2023-01-10 05:49:00,,0819.9,5.00,0.00,22.7,20.9,00.0,31.6,24.4,13.1,0000.0,0005.34,0001.80,0001.38
2023-01-10 05:50:00,,0819.9,5.01,0.00,22.6,20.8,00.0,31.6,24.3,13.1,0000.0,0005.53,0001.88,0001.45
2023-01-10 05:51:00,,0819.8,5.00,0.00,22.6,20.8,00.0,31.6,24.4,13.1,0000.0,0005.70,0001.98,0001.55
2023-01-10 05:52:00,,0819.7,5.00,0.00,22.6,20.9,00.0,31.6,24.3,13.0,0000.0,0005.75,0002.03,0001.66
2023-01-10 05:53:00,,0819.8,5.01,0.00,22.6,21.0,00.0,31.6,24.4,12.8,0000.0,0005.58,0002.05,0001.69
2023-01-10 05:54:00,,0819.9,5.00,0.00,22.6,21.1,00.0,31.6,24.4,12.9,0000.0,0004.86,0002.11,0001.74
2023-01-10 05:55:00,,0820.0,5.00,0.00,22.6,21.2,00.0,31.6,24.4,13.1,0000.0,0005.04,0002.23,0001.87
2023-01-10 05:56:00,,0819.9,5.00,0.00,22.6,21.2,00.0,31.5,24.4,13.1,0000.0,0005.08,0002.28,0001.93
2023-01-10 05:57:00,,0820.0,5.01,0.00,22.6,21.2,00.0,31.5,24.4,13.1,0000.0,0004.33,0002.34,0001.98
2023-01-10 05:58:00,,0820.0,5.01,0.00,22.6,21.3,00.0,31.5,24.4,13.1,0000.0,0004.08,0002.43,0002.02
2023-01-10 05:59:00,,0820.0,5.01,0.00,22.6,21.3,00.0,31.5,24.4,13.0,0000.0,0004.10,0002.49,0002.05
